星链-5436 (STARLINK-5436 )

导读

STARLINK-5436是美国太空探索技术公司星链互联网卫星星座的一员,于2022年12月17日发射升空。它属于星链第二代组网卫星,运行在近地轨道,旨在为全球提供高速低延迟互联网覆盖,推进星链星座完成全球组网部署,服务民用通信与特殊场景连接需求。

基本信息
目录编号:
54795
目录名称:
STARLINK-5436
国际标识:
2022-175AP
轨道中心:
EARTH
卫星名称:
星链-5436
卫星全名:
星链-5436 (STARLINK-5436 )
卫星状态:
在轨 (已飞行1357 天)
发射日期:
2022-12-17 UTC
国别 :
美国 (US)
星等 :
--
轨道信息
数据来源 国际轨道数据 AOE轨道数据
星历时间 2026-09-03T20:29:19+0800
16小时前
查看轨道信息
2026-09-01T03:00:00+0800
3天前
查看轨道信息
半长轴 6840.883km 6840.801km
偏心率 0.0001103 0.0001403
轨道倾角 53.160° 53.159°
近地点辐角 91.685° 72.320°
升交点赤经 297.082° 309.839°
平近点角 268.428° 326.661°
近地点 461.991km 461.704km
远地点 463.501km 463.624km
周期 93.849分钟 93.847分钟
每日圈数 15.343857 15.344133
详细信息
固有亮度:
5
最大亮度:
2.5
卫星平台:
Starlink v1.5
覆盖范围:
全球
运营商:
太空探索技术公司
运营商所在国:
美国
制造商(研发单位):
太空探索技术公司
制造商所在国:
美国
使用方式:
暂无
卫星简介
星链(Starlink)计划是由太空探索技术公司(SpaceX)提出的一个巨型低轨卫星互联网星座项目,计划在2019年至2024年间在太空搭建由约1.2万颗卫星组成的“星链”网络,其中1584颗将部署在地球上空550千米处的近地轨道,并从2020年开始工作。该卫星仍在工作。
2D轨道图
3D轨道图
轨道高度分析图
轨道倾角分析图
轨道综合分析图
查看轨道综合分析图
交会数据列表
事件ID 空间交会对象 最接近时刻(TCA) 交会距离 交会风险概率(CRP) 交会风险指数(CRI) 操作
CDM_260905-052505-479506-574622
2026-09-05T
05:25:18+0000
0.844 km
远距离
2.896538E-5 中风险 0.64
CDM_260905-065905-479506-574622
2026-09-05T
06:59:05+0000
1.608 km
极远距离
3.317984E-6 低风险 0.45
CDM_260905-024405-326505-479521
2026-09-05T
02:44:49+0000
2.959 km
极远距离
1.217864E-6 低风险 0.37